BEIJING 1 1 28890U 05043A 26171.50068527 .00000198 00000+0 47667-4 0 9990 2 28890 98.2923 304.7319 0013294 272.1237 87.8442 14.63533648101134 HUANJING 1A (HJ-1A) 1 33320U 08041A 26171.53769774 .00001207 00000+0 15066-3 0 9999 2 33320 97.6687 157.2472 0020232 124.2401 236.0734 14.83994178958907 HUANJING 1B (HJ-1B) 1 33321U 08041B 26171.50829508 .00000190 00000+0 29234-4 0 9992 2 33321 97.6521 160.3802 0036290 170.0773 190.1166 14.83319187958909 YAOGAN-4 1 33446U 08061A 26171.40531236 .00000754 00000+0 98778-4 0 9994 2 33446 97.9306 104.8918 0015630 62.9607 297.3200 14.83205273946144 DEIMOS-1 1 35681U 09041A 26171.50989199 .00000257 00000+0 45004-4 0 9994 2 35681 97.7410 328.5931 0001837 128.0154 232.1222 14.75239567907373 UK-DMC 2 1 35683U 09041C 26171.54753647 .00000714 00000+0 11087-3 0 9998 2 35683 97.8847 306.4318 0001133 86.0368 274.0971 14.76040463907061 DMC3-FM1 1 40715U 15032A 26171.57276362 .00000286 00000+0 38843-4 0 9998 2 40715 97.6452 36.6141 0006782 51.1791 309.0030 14.85740268590419 DMC3-FM2 1 40716U 15032B 26171.52745429 .00000826 00000+0 10099-3 0 9991 2 40716 97.6508 38.1467 0007460 55.7548 304.4373 14.85748734590408 DMC3-FM3 1 40717U 15032C 26171.55080308 .00000214 00000+0 30617-4 0 9993 2 40717 97.6561 39.9246 0006721 55.6607 304.5244 14.85736989590414